KC0AFB Weather Reports


time (UTC)temp
F
wind
direction
speed
knots
gust
knots
rain 1hr
in
rain 24hr
in
rain mn
in
humidity
%
barometer
mb
20260505002009 45 334 12.2 14.8 0.00 0.00 0.00 47 1009.3
20260505001506 46 314 11.3 14.8 0.00 0.00 0.00 47 1009.4
20260505001003 45 278 11.3 13.9 0.00 0.00 0.00 47 1009.4
20260505000500 45 358 8.7 13.9 0.00 0.00 0.00 48 1009.5
20260504235957 45 317 8.7 11.3 0.00 0.00 0.00 48 1009.4
20260504235454 46 344 10.4 13.0 0.00 0.00 0.00 47 1008.9
20260504234951 45 340 8.7 11.3 0.00 0.00 0.00 48 1009.2
20260504234448 46 318 7.8 9.6 0.00 0.00 0.00 47 1009.2
20260504233944 46 330 13.9 15.6 0.00 0.00 0.00 47 1009.2
20260504233440 46 336 13.0 18.2 0.00 0.00 0.00 47 1009.2
20260504232937 47 309 9.6 14.8 0.00 0.00 0.00 46 1009.2
20260504232434 47 324 13.9 19.1 0.00 0.00 0.00 46 1009.3
20260504231931 47 278 13.0 15.6 0.00 0.00 0.00 47 1009.2
20260504231427 47 268 9.6 9.6 0.00 0.00 0.00 47 1009.3
20260504230924 46 341 9.6 12.2 0.00 0.00 0.00 47 1009.0
20260504230421 46 293 8.7 8.7 0.00 0.00 0.00 48 1009.2
20260504225920 46 306 13.0 18.2 0.00 0.00 0.00 46 1008.8
20260504225416 47 308 13.0 18.2 0.00 0.00 0.00 46 1009.3
20260504224914 47 309 9.6 12.2 0.00 0.00 0.00 48 1008.7
20260504224410 46 300 12.2 13.9 0.00 0.00 0.00 46 1009.2
20260504223907 49 297 10.4 19.1 0.00 0.00 0.00 44 1008.6
20260504223403 47 306 12.2 14.8 0.00 0.00 0.00 44 1008.6
20260504222859 48 309 14.8 20.9 0.00 0.00 0.00 45 1008.7
20260504222356 48 311 14.8 17.4 0.00 0.00 0.00 45 1008.5
20260504221855 47 323 14.8 19.1 0.00 0.00 0.00 46 1008.8
20260504221351 47 311 10.4 15.6 0.00 0.00 0.00 47 1008.8
20260504220848 47 303 10.4 12.2 0.00 0.00 0.00 45 1008.4
20260504220344 48 311 13.0 15.6 0.00 0.00 0.00 47 1008.5
20260504215842 48 337 8.7 9.6 0.00 0.00 0.00 47 1008.5
20260504215338 48 302 13.0 15.6 0.00 0.00 0.00 48 1008.6
20260504214834 48 318 13.0 15.6 0.00 0.00 0.00 49 1008.6
20260504214331 49 304 10.4 12.2 0.00 0.00 0.00 49 1008.5
20260504213828 47 334 7.0 9.6 0.00 0.00 0.00 54 1008.6
20260504213324 49 301 13.0 17.4 0.00 0.00 0.00 50 1008.4
20260504212822 49 311 17.4 20.0 0.00 0.00 0.00 47 1008.5
20260504212317 48 331 9.6 13.0 0.00 0.00 0.00 50 1008.3
20260504211815 47 318 9.6 12.2 0.00 0.00 0.00 51 1008.7
20260504211311 47 317 8.7 12.2 0.00 0.00 0.00 51 1008.5
20260504210809 47 287 9.6 12.2 0.00 0.00 0.00 49 1008.3
20260504210306 48 309 15.6 20.9 0.00 0.00 0.00 49 1008.4
20260504205803 48 320 11.3 15.6 0.00 0.00 0.00 51 1008.5
20260504205301 48 296 12.2 14.8 0.00 0.00 0.00 51 1008.5
20260504204758 48 316 8.7 12.2 0.00 0.00 0.00 50 1008.7
20260504204256 48 321 6.1 8.7 0.00 0.00 0.00 50 1008.7
20260504203756 47 335 7.0 7.8 0.00 0.00 0.00 50 1008.6
20260504203252 48 303 10.4 13.0 0.00 0.00 0.00 50 1008.3
20260504202747 48 296 15.6 20.9 0.00 0.00 0.00 50 1008.4
20260504202245 48 295 9.6 13.0 0.00 0.00 0.00 51 1008.5
20260504201742 48 340 7.0 7.8 0.00 0.00 0.00 53 1008.5
20260504201239 47 299 11.3 17.4 0.00 0.00 0.00 54 1008.4
20260504200737 47 303 11.3 13.9 0.00 0.00 0.00 54 1008.6
20260504200232 48 299 12.2 18.2 0.00 0.00 0.00 52 1008.6
20260504195729 46 314 13.0 15.6 0.00 0.00 0.00 54 1008.6
20260504195225 47 327 12.2 14.8 0.00 0.00 0.00 54 1008.5
20260504194722 46 300 7.8 13.0 0.00 0.00 0.00 53 1008.6
20260504194218 47 256 13.0 15.6 0.00 0.00 0.00 51 1008.6
20260504193715 47 279 10.4 13.9 0.00 0.00 0.00 53 1008.6
20260504193212 46 316 9.6 11.3 0.00 0.00 0.00 54 1008.6
20260504192710 47 337 12.2 14.8 0.00 0.00 0.00 53 1008.4
20260504192208 46 300 10.4 13.9 0.00 0.00 0.00 51 1008.4
20260504191707 48 297 13.0 18.2 0.00 0.00 0.00 49 1008.4
20260504191203 49 284 13.0 17.4 0.00 0.00 0.00 48 1008.2
20260504190658 47 309 7.0 8.7 0.00 0.00 0.00 51 1008.3
20260504190155 48 323 13.0 17.4 0.00 0.00 0.00 49 1008.3
20260504185651 48 308 16.5 20.0 0.00 0.00 0.00 47 1008.2
20260504185147 49 282 9.6 13.9 0.00 0.00 0.00 49 1008.2
20260504184644 48 309 13.0 17.4 0.00 0.00 0.00 47 1008.3
20260504184133 48 339 13.0 17.4 0.00 0.00 0.00 46 1008.3
20260504183631 49 322 11.3 13.9 0.00 0.00 0.00 46 1008.5
20260504183128 49 322 13.9 15.6 0.00 0.00 0.00 45 1008.2
20260504182626 48 275 16.5 19.1 0.00 0.00 0.00 45 1008.0
20260504182123 47 298 13.9 14.8 0.00 0.00 0.00 47 1008.1
20260504181620 48 316 15.6 18.2 0.00 0.00 0.00 46 1008.0
20260504181118 47 315 13.0 14.8 0.00 0.00 0.00 46 1008.2
20260504180617 48 313 15.6 20.0 0.00 0.00 0.00 45 1008.0
20260504180115 48 303 13.9 17.4 0.00 0.00 0.00 46 1008.1
20260504175612 47 287 12.2 15.6 0.00 0.00 0.00 47 1008.2
20260504175109 46 278 18.2 23.5 0.00 0.00 0.00 48 1008.1
20260504174607 46 322 19.1 21.7 0.00 0.00 0.00 48 1008.1
20260504174103 46 307 11.3 13.9 0.00 0.00 0.00 48 1008.1
20260504173600 47 283 17.4 23.5 0.00 0.00 0.00 47 1008.1
20260504173058 47 312 13.9 15.6 0.00 0.00 0.00 48 1008.3
20260504172554 46 318 11.3 13.9 0.00 0.00 0.00 49 1008.3
20260504172050 46 301 14.8 20.0 0.00 0.00 0.00 48 1008.0
20260504171547 47 294 11.3 15.6 0.00 0.00 0.00 48 1007.9
20260504171044 46 324 11.3 13.9 0.00 0.00 0.00 48 1008.0
20260504170540 47 337 13.9 18.2 0.00 0.00 0.00 46 1008.0
20260504150918 41 307 9.6 13.0 0.00 0.00 0.00 59 1008.2
20260504150415 41 292 13.0 17.4 0.00 0.00 0.00 59 1008.4
20260504140841 42 337 13.9 15.6 0.00 0.00 0.00 58 1007.7
20260504140337 42 289 9.6 13.0 0.00 0.00 0.00 58 1007.7
20260504130806 41 283 7.8 11.3 0.00 0.00 0.00 65 1007.0
20260504130302 41 319 12.2 13.9 0.00 0.00 0.00 65 1007.1
20260504120226 42 308 10.4 14.8 0.00 0.00 0.00 63 1005.5
20260504110653 44 325 13.0 17.4 0.00 0.00 0.00 58 1004.7
20260504110149 44 294 10.4 12.2 0.00 0.00 0.00 57 1004.8
20260504100610 46 304 6.1 7.8 0.00 0.00 0.00 57 1004.3
20260504100108 47 3 11.3 13.9 0.00 0.00 0.00 56 1004.3
20260504082004 42 294 1.7 1.7 0.00 0.00 0.00 84 1002.8
20260504081501 42 237 0.9 1.7 0.00 0.00 0.00 84 1002.7
20260504081001 42 162 0.0 0.0 0.00 0.00 0.00 82 1002.7
20260504080458 42 244 0.9 0.9 0.00 0.00 0.00 82 1002.6
20260504050305 52 338 14.8 17.4 0.00 0.00 0.00 63 1001.2
20260504045802 53 327 10.4 15.6 0.00 0.00 0.00 62 1001.3
20260504045257 54 15 15.6 20.0 0.00 0.00 0.00 61 1000.8
20260504044755 59 2 15.6 20.0 0.00 0.00 0.00 55 1000.4
20260504044252 61 299 10.4 12.2 0.00 0.00 0.00 40 999.8
20260504043749 62 264 9.6 11.3 0.00 0.00 0.00 37 998.8
20260504043246 60 287 7.0 9.6 0.00 0.00 0.00 41 998.9
20260504042744 60 233 2.6 2.6 0.00 0.00 0.00 44 998.7
20260504042240 59 245 1.7 2.6 0.00 0.00 0.00 45 998.5
20260504041736 60 299 3.5 4.3 0.00 0.00 0.00 45 998.6
20260504041232 60 297 3.5 5.2 0.00 0.00 0.00 44 999.0
20260504040728 60 272 4.3 4.3 0.00 0.00 0.00 44 998.9
20260504040226 61 262 4.3 6.1 0.00 0.00 0.00 45 998.6
20260504035722 61 255 4.3 5.2 0.00 0.00 0.00 45 998.8
20260504035220 60 231 5.2 6.1 0.00 0.00 0.00 46 998.8
20260504034717 60 223 2.6 4.3 0.00 0.00 0.00 47 998.7
20260504034214 60 217 3.5 4.3 0.00 0.00 0.00 47 998.7
20260504033712 60 222 4.3 5.2 0.00 0.00 0.00 47 999.1
20260504033209 60 237 4.3 6.1 0.00 0.00 0.00 47 998.9
20260504032706 60 227 3.5 5.2 0.00 0.00 0.00 47 998.9
20260504032203 60 193 2.6 4.3 0.00 0.00 0.00 47 999.1
20260504031659 60 236 4.3 5.2 0.00 0.00 0.00 47 999.3
20260504031156 60 286 3.5 4.3 0.00 0.00 0.00 47 999.0
20260504030652 61 240 3.5 5.2 0.00 0.00 0.00 47 999.2
20260504030150 61 241 3.5 4.3 0.00 0.00 0.00 46 999.3
20260504025646 61 199 3.5 4.3 0.00 0.00 0.00 46 999.3
20260504025142 62 226 4.3 5.2 0.00 0.00 0.00 45 999.2
20260504024635 62 237 4.3 5.2 0.00 0.00 0.00 45 999.6
20260504024131 63 244 3.5 5.2 0.00 0.00 0.00 44 999.6
20260504023627 64 247 6.1 7.0 0.00 0.00 0.00 43 999.6
20260504023124 64 239 4.3 5.2 0.00 0.00 0.00 42 999.7
20260504022620 64 224 3.5 4.3 0.00 0.00 0.00 42 999.7
20260504022116 65 239 6.1 7.0 0.00 0.00 0.00 41 999.8
20260504021614 65 241 7.0 8.7 0.00 0.00 0.00 41 999.7
20260504021110 66 280 6.1 7.8 0.00 0.00 0.00 40 1000.0
20260504020608 66 238 3.5 4.3 0.00 0.00 0.00 40 1000.1
20260504020104 66 237 5.2 6.1 0.00 0.00 0.00 39 1000.0
20260504015600 66 238 6.1 7.8 0.00 0.00 0.00 39 1000.3
20260504015056 67 244 5.2 6.1 0.00 0.00 0.00 39 1000.1
20260504014552 68 184 7.8 9.6 0.00 0.00 0.00 37 1000.1
20260504014050 68 214 4.3 6.1 0.00 0.00 0.00 37 1000.0
20260504013547 68 236 6.1 7.0 0.00 0.00 0.00 37 1000.3
20260504013044 69 234 7.0 8.7 0.00 0.00 0.00 36 1000.3
20260504012542 69 215 9.6 11.3 0.00 0.00 0.00 35 1000.2
20260504012039 69 265 6.1 8.7 0.00 0.00 0.00 36 1000.3
20260504011536 69 235 6.1 7.8 0.00 0.00 0.00 36 1000.1
20260504011032 69 266 5.2 7.0 0.00 0.00 0.00 36 1000.7
20260504010527 69 217 4.3 6.1 0.00 0.00 0.00 37 1000.7
20260504010018 69 275 4.3 6.1 0.00 0.00 0.00 37 1000.8
20260504005515 69 254 2.6 2.6 0.00 0.00 0.00 37 1001.0
20260504005013 69 268 4.3 5.2 0.00 0.00 0.00 37 1000.9
20260504004510 70 253 6.1 7.0 0.00 0.00 0.00 35 1000.9
20260504004007 71 279 9.6 12.2 0.00 0.00 0.00 34 1001.0
20260504003503 71 265 6.1 7.8 0.00 0.00 0.00 34 1001.1
20260504003000 72 209 6.1 9.6 0.00 0.00 0.00 33 1001.3
20260504002457 72 264 7.0 8.7 0.00 0.00 0.00 32 1001.7